Wind_Speed
31 31 31 31 32 32 32 32 31 31 30 30 31 32 34 35 37 39 41 44 45 45 44 45 49 53 56 56 55 53 51 49 48 46 45 43 42 40 37 36 37 39 41 42 40 37 34 34 33 33 33 33 33 35 36 37 36 35 35 35 35 34 35 36 35 35 33 32 30
31 31 31 31 32 33 33 33 32 32 31 31 31 32 33 34 35 37 39 42 44 44 44 44 47 50 54 56 57 56 54 52 50 49 47 46 45 43 40 37 37 38 40 42 40 37 34 33 32 33 33 33 34 35 36 37 37 36 36 36 35 35 35 36 36 36 35 33 31
31 31 31 32 33 34 34 34 34 33 32 32 31 32 33 34 35 36 37 39 41 42 43 44 46 49 52 55 57 57 56 54 52 50 49 47 47 45 42 39 39 40 42 43 43 40 36 33 31 32 33 34 34 36 37 38 38 37 37 36 35 35 36 36 36 36 35 34 33
31 31 32 33 34 35 35 35 35 34 33 32 32 32 33 34 35 36 36 37 39 41 43 45 46 48 51 54 57 58 58 56 53 51 49 48 48 47 45 43 43 44 46 47 47 45 41 37 33 32 33 34 35 37 38 38 39 38 38 36 35 36 36 36 36 36 36 35 34
31 32 32 33 34 35 35 34 34 34 33 33 32 33 34 35 36 36 37 37 39 40 42 43 45 48 50 53 56 58 58 56 52 50 49 49 50 50 49 48 48 49 50 49 48 47 45 41 37 35 35 36 37 38 39 39 39 39 38 37 36 36 36 36 36 36 36 35 34
31 31 32 32 33 34 34 34 33 33 33 33 33 34 35 36 36 37 37 38 39 40 41 42 44 46 49 51 54 56 56 54 50 47 47 48 50 51 52 52 52 53 52 50 48 46 44 42 40 39 39 39 39 39 40 40 40 40 39 38 37 36 36 36 36 36 36 35 34
30 30 31 31 32 33 33 33 33 33 33 34 34 35 36 37 36 36 37 38 38 39 40 41 43 45 47 49 52 54 54 52 49 46 44 45 48 50 52 53 53 52 51 49 47 45 44 43 43 42 42 42 42 42 41 42 42 41 40 39 38 37 37 37 36 36 36 35 34
30 30 30 30 31 32 33 33 33 33 34 35 35 36 37 36 35 35 35 37 38 39 40 41 42 43 45 47 49 51 52 51 49 46 44 43 45 47 49 51 51 50 49 46 44 43 43 44 45 45 44 43 43 43 43 43 42 42 40 39 38 37 37 37 37 37 36 35 34
31 30 29 29 30 31 32 32 32 33 34 35 35 36 36 36 34 33 34 35 37 39 39 40 41 41 42 43 46 49 51 52 50 48 46 44 44 45 47 48 48 46 44 41 39 40 42 44 46 46 45 43 43 43 43 42 42 41 40 39 38 37 37 37 37 37 36 35 34
32 31 30 29 29 30 31 32 32 32 33 34 34 34 34 34 33 32 32 33 35 37 39 39 40 40 40 41 42 46 49 51 50 49 47 46 46 46 47 47 45 42 40 38 37 38 40 43 45 45 44 43 42 42 42 41 41 40 39 39 38 38 37 37 37 37 36 34 33
33 32 31 30 29 30 30 32 32 33 33 33 33 33 33 33 32 32 31 32 34 36 38 39 40 40 40 40 41 44 47 49 50 49 48 47 47 47 47 46 44 41 38 37 36 37 38 40 42 43 42 42 41 42 42 42 41 41 40 39 38 38 38 37 37 37 36 34 33
34 33 32 30 29 30 31 32 33 33 33 32 32 32 32 32 32 32 32 32 33 35 36 38 39 40 40 40 41 43 46 48 49 49 49 49 49 48 48 46 44 41 38 37 36 36 36 37 39 40 40 40 41 42 42 43 43 42 41 40 39 38 38 37 37 37 36 33 33
35 34 32 31 30 30 31 32 33 33 32 32 32 31 31 32 32 33 33 34 34 34 35 37 39 40 40 41 42 43 45 46 47 48 49 49 49 49 48 47 44 41 38 37 36 36 36 36 38 39 40 40 40 41 43 43 44 43 42 41 40 39 38 37 36 34 33 32 32
36 34 33 31 30 30 31 32 32 32 32 32 31 31 31 32 32 33 34 34 34 35 35 37 38 40 41 42 43 44 44 44 44 44 46 47 48 48 48 46 44 42 40 38 37 36 36 36 37 39 40 40 41 41 42 43 44 43 43 42 41 40 38 35 32 31 30 31 32
34 34 32 32 31 31 31 31 31 31 31 31 31 31 31 31 32 33 34 34 35 35 36 37 39 40 41 43 44 44 43 42 40 40 42 43 45 46 47 46 44 43 42 41 39 37 36 36 37 38 40 41 41 40 41 42 43 43 42 42 41 40 37 32 29 28 29 31 31
33 33 33 32 32 31 31 30 30 31 31 31 30 30 30 31 31 32 33 34 35 36 37 38 39 40 41 42 44 44 44 42 40 39 39 41 43 44 45 45 45 44 44 43 41 38 37 36 36 37 39 40 41 41 41 42 42 42 41 40 40 38 35 30 28 28 30 31 31
34 34 34 33 33 32 31 31 30 30 30 30 30 30 30 30 30 31 32 33 34 36 37 38 39 40 41 42 43 44 44 43 42 40 39 39 40 42 44 45 45 45 45 44 42 39 37 35 35 36 38 40 41 42 42 41 41 40 39 39 38 36 33 29 29 30 31 31 31
35 35 35 34 33 33 32 31 30 30 30 29 29 29 29 29 29 30 30 31 33 35 36 37 38 39 40 41 42 43 44 44 43 41 40 39 38 39 41 44 45 45 44 42 40 38 36 35 35 36 37 39 41 42 42 42 40 39 38 37 36 35 32 29 28 30 31 32 32
35 35 35 35 34 33 32 31 31 30 29 29 29 29 29 29 29 30 30 31 32 33 35 36 37 38 39 40 40 42 43 43 43 42 40 38 36 36 38 41 43 44 43 40 37 34 33 33 34 35 36 38 40 41 42 42 40 39 37 36 36 35 33 30 28 29 31 33 33
35 35 35 35 35 34 33 32 31 30 30 29 29 29 30 30 30 30 31 31 31 32 33 34 35 36 37 38 39 40 42 43 43 42 40 38 35 34 35 38 41 42 40 38 35 33 32 33 34 35 36 37 39 40 41 41 40 39 38 37 36 34 33 31 30 29 31 33 34
35 35 35 35 35 34 34 33 31 31 30 30 29 30 30 30 30 31 31 30 30 31 32 33 34 35 35 36 37 38 40 41 41 41 40 39 37 35 35 36 38 39 38 37 37 36 36 36 36 37 37 37 37 38 39 39 38 38 37 37 36 34 33 32 32 31 32 33 35
35 35 34 34 34 34 33 32 31 30 30 30 29 29 30 30 30 30 30 30 30 30 31 32 33 33 34 34 35 36 38 39 39 39 38 38 37 36 36 36 38 38 38 38 39 40 40 40 40 39 38 37 36 37 37 37 37 36 35 35 35 34 33 33 33 33 34 35 36
35 35 34 34 33 33 32 31 30 29 29 29 29 29 29 29 29 29 29 29 29 29 30 31 32 32 32 33 33 34 36 37 38 37 37 36 36 36 36 37 38 39 39 40 41 41 42 42 42 41 39 37 36 35 36 36 35 35 34 33 33 33 33 34 34 34 35 36 38
34 34 34 33 33 32 31 30 29 29 28 28 28 28 28 28 28 28 28 28 28 28 28 29 30 31 31 32 32 33 34 35 36 37 36 36 35 35 35 37 39 40 40 41 41 41 42 42 42 41 40 38 36 34 34 34 34 33 32 32 31 32 32 33 34 35 36 37 39
34 34 33 33 33 32 31 30 29 28 28 27 27 27 27 27 27 27 27 27 27 26 26 27 28 28 29 30 31 32 33 34 35 36 36 36 35 35 35 36 38 39 41 41 41 41 41 41 42 41 40 39 37 35 33 32 32 31 31 32 32 32 33 33 34 35 37 38 39
33 33 33 32 32 32 31 30 29 28 27 27 26 26 26 25 25 26 26 26 25 24 24 24 25 26 27 29 30 31 32 33 34 35 36 36 36 36 36 36 37 38 39 40 41 41 41 42 42 42 41 40 39 37 35 33 32 32 32 33 33 34 34 35 35 36 38 39 39
33 33 33 32 31 31 31 30 28 27 27 26 26 26 25 24 24 25 25 25 24 23 22 23 23 24 25 27 28 30 31 32 32 33 34 35 36 36 36 36 37 37 38 38 39 39 40 41 42 43 43 43 43 42 40 38 36 36 35 36 36 36 36 36 37 37 38 39 39
32 33 33 32 32 31 30 28 28 27 27 27 26 25 24 24 24 24 24 23 23 22 22 22 23 23 24 26 27 28 29 30 31 31 32 32 33 34 35 35 35 35 35 35 35 35 36 37 38 40 41 43 44 44 44 43 42 41 40 40 40 40 39 39 39 39 38 38 38
31 33 33 33 32 31 29 28 28 27 27 27 26 25 24 24 23 23 23 23 23 23 23 22 23 23 25 26 26 27 27 28 29 29 29 29 29 30 31 31 32 32 31 30 30 30 31 32 33 35 36 38 39 41 42 43 44 44 44 44 44 43 43 42 41 40 39 39 39
31 32 33 33 32 31 30 29 28 27 26 26 26 25 25 24 24 23 23 23 23 23 23 22 23 24 24 25 25 25 26 26 26 27 27 27 27 26 27 27 27 27 26 26 26 27 27 28 29 30 32 33 34 36 38 39 41 42 43 44 44 44 44 43 42 42 41 41 41
30 32 33 33 32 31 30 28 27 26 26 26 26 26 25 24 24 23 23 23 23 22 22 22 22 23 23 23 23 23 24 24 24 25 25 25 25 24 24 24 24 23 23 24 25 26 27 28 29 29 30 31 32 33 34 35 37 38 40 40 40 41 41 41 42 42 42 42 41
30 31 33 33 33 32 30 28 27 27 27 27 27 27 26 25 24 23 22 22 22 22 22 22 23 23 22 22 22 22 22 22 23 24 24 24 24 23 23 22 23 23 25 26 28 28 28 29 29 29 30 30 31 32 32 34 36 37 37 38 38 39 40 40 41 42 42 42 42
30 31 32 33 33 32 31 29 28 28 27 27 28 27 26 25 23 23 23 23 23 23 23 23 23 22 22 21 21 21 21 22 22 23 23 24 23 23 23 23 25 27 29 30 30 29 29 29 29 29 29 29 30 31 33 35 37 38 38 38 39 39 40 40 41 41 42 42 43
30 31 32 33 33 33 32 31 30 29 29 29 28 28 27 25 24 24 24 24 23 23 23 23 22 21 20 20 20 21 21 22 22 23 23 23 23 24 24 26 29 31 32 32 31 30 29 29 29 29 29 29 31 33 36 39 40 40 40 40 40 40 41 41 41 42 42 42 43
31 32 32 33 33 33 33 33 32 31 30 30 29 29 28 26 25 25 24 24 23 23 23 22 21 20 20 20 20 20 21 21 22 23 23 24 25 26 28 31 33 34 35 34 33 31 30 30 29 29 29 31 34 37 40 41 42 43 43 43 43 43 43 43 43 43 43 43 43
32 32 33 33 33 34 34 34 33 32 32 31 30 29 28 27 26 25 24 23 23 23 23 22 21 21 20 20 20 21 21 21 22 25 27 29 31 32 33 34 36 37 37 35 34 32 31 30 30 30 31 33 36 39 41 43 43 44 45 45 45 46 46 46 45 44 44 43 43
32 32 33 33 33 34 34 34 34 34 33 32 31 30 29 27 26 24 23 23 23 24 23 23 22 22 22 22 23 24 25 25 26 27 30 32 34 34 34 34 36 37 37 36 34 32 32 32 32 33 33 35 37 39 40 42 44 45 46 46 47 48 48 47 46 45 44 43 42
32 32 32 32 33 34 34 34 34 35 34 33 32 30 29 27 25 24 23 23 24 24 24 23 23 24 24 25 26 27 28 28 29 29 29 31 33 34 33 33 36 37 37 35 34 33 33 34 34 34 34 35 36 37 39 41 43 44 46 47 47 48 48 47 46 44 43 41 40
32 32 31 32 32 33 33 34 34 35 34 34 33 31 29 27 26 25 25 25 25 26 26 26 27 27 28 29 28 29 30 30 31 31 30 30 32 33 33 33 34 35 36 35 34 34 34 35 34 34 33 33 34 36 38 40 42 44 45 46 46 46 46 45 44 42 41 39 38
32 31 31 31 31 31 32 33 33 34 34 34 33 32 31 29 28 27 27 27 28 28 29 30 31 31 31 31 30 31 32 32 33 33 32 32 32 33 33 33 33 34 34 33 33 33 34 34 33 33 32 31 32 34 36 39 41 42 43 44 44 43 43 42 41 40 38 37 36
32 32 31 31 30 30 30 31 31 32 33 33 32 32 31 31 31 30 30 30 30 31 31 32 32 32 33 33 33 33 33 33 33 34 34 34 34 33 33 33 33 33 33 32 32 32 32 32 32 32 32 31 31 32 35 37 38 40 41 42 41 41 40 38 37 36 35 34 33
Wind_Direction
215 216 217 217 218 219 219 220 219 218 217 215 213 211 209 208 208 209 211 211 211 210 208 207 206 206 205 203 198 195 195 195 195 194 195 195 194 191 189 190 193 197 200 201 200 200 201 202 203 202 202 202 204 208 211 213 214 216 218 219 220 223 225 226 227 228 229 228 229
215 216 217 218 219 220 221 220 220 219 218 217 216 214 212 211 210 210 212 213 213 212 210 208 207 206 205 204 202 201 200 199 198 197 197 197 196 193 190 190 192 196 199 202 203 203 203 205 206 207 206 206 207 210 213 215 216 218 219 220 222 225 227 228 230 231 232 231 230
215 215 216 217 218 220 220 221 220 220 218 217 217 216 215 213 211 211 213 215 215 213 211 210 209 207 206 205 205 205 205 204 202 200 199 199 198 195 193 193 194 196 200 204 207 209 210 210 210 210 210 209 210 212 214 216 218 219 221 222 225 227 228 229 231 232 233 232 231
213 214 215 216 218 219 221 222 222 221 221 220 219 219 217 215 212 212 212 214 214 213 212 211 211 210 209 208 209 209 209 207 205 203 201 200 199 197 197 196 196 198 201 206 211 215 218 218 217 215 213 212 213 214 216 218 219 221 223 225 227 228 230 231 232 233 233 232 232
211 213 214 216 218 220 222 223 223 223 223 223 222 221 218 215 213 211 211 211 212 212 213 213 214 214 213 213 213 212 210 207 204 202 201 201 200 199 199 199 199 200 203 208 213 218 220 221 220 219 218 216 216 217 218 220 221 223 224 226 228 230 231 233 234 234 234 233 233
210 212 214 216 219 221 223 225 225 226 226 225 224 222 218 215 212 211 210 210 211 213 214 214 215 215 216 216 215 212 208 203 200 200 201 202 202 202 202 201 201 203 206 210 215 218 219 219 220 220 221 220 220 220 221 222 223 225 225 227 228 230 232 234 236 236 235 234 233
212 213 214 216 218 220 222 224 226 228 228 227 225 222 219 216 214 212 212 212 212 213 213 214 215 216 216 216 214 210 205 201 199 199 201 203 204 205 204 204 205 207 211 215 217 217 216 216 218 220 221 222 222 222 223 223 224 225 226 227 228 230 232 234 236 236 236 235 234
216 217 217 217 218 219 221 223 225 227 228 228 227 225 222 220 217 215 215 215 214 213 213 213 214 215 216 216 214 210 206 203 201 201 201 202 204 205 206 207 209 211 214 216 217 216 215 216 218 219 220 221 222 223 223 224 224 225 226 227 229 230 232 234 235 236 236 235 235
219 221 221 220 219 219 220 222 224 226 227 228 228 227 225 223 222 220 218 217 216 216 214 213 214 215 217 217 215 211 208 206 205 204 204 204 204 204 206 207 209 211 212 213 213 214 215 217 219 220 221 221 222 223 224 225 225 226 227 228 229 231 232 233 234 235 235 234 235
221 222 223 221 220 219 220 222 225 227 228 229 229 229 228 226 225 224 223 221 220 218 216 214 214 216 217 217 215 212 210 208 207 206 206 205 205 205 205 205 205 206 206 208 210 213 215 218 220 222 223 223 224 225 226 228 228 228 228 229 230 231 232 233 233 234 233 233 233
222 223 223 222 221 220 221 223 225 227 228 229 230 230 229 228 228 228 227 225 224 222 219 217 216 216 216 216 214 211 210 208 208 207 207 206 206 205 204 202 201 201 203 206 209 212 215 218 220 222 223 224 225 227 228 230 230 230 229 229 229 230 231 232 233 233 232 231 232
222 222 223 222 221 221 222 223 225 226 228 229 229 230 230 229 230 230 229 228 227 225 224 221 219 217 216 214 211 209 208 208 208 208 207 207 206 205 203 201 200 201 203 205 208 210 214 217 219 221 222 223 224 226 227 228 228 229 229 228 228 229 230 231 232 232 232 230 231
219 220 221 222 222 222 222 223 225 226 227 228 229 229 229 230 231 231 230 230 229 229 227 225 222 219 216 213 210 207 206 206 207 208 208 208 207 205 203 201 201 203 204 205 206 209 213 216 218 220 221 221 222 223 224 225 225 226 227 227 227 228 229 230 231 232 231 230 231
216 217 219 221 222 223 223 223 225 226 227 227 228 228 229 230 231 231 231 231 231 230 228 226 223 221 217 214 210 206 205 204 205 206 207 208 207 205 204 203 204 204 204 204 205 209 213 216 218 219 220 220 220 221 222 223 223 224 225 226 226 227 228 229 230 230 230 230 231
215 217 220 222 223 224 223 223 224 225 226 226 226 227 228 230 231 232 232 232 231 230 228 226 223 221 219 216 211 208 205 204 203 204 205 207 207 206 206 205 206 206 205 204 205 208 212 216 218 220 220 220 219 220 221 223 224 225 225 225 226 227 227 227 226 227 229 230 233
218 220 221 223 224 224 224 223 223 223 224 225 225 226 228 230 232 233 233 232 231 229 227 225 223 221 219 217 214 211 208 206 205 205 206 207 207 208 208 208 208 207 207 206 206 209 212 216 219 221 222 222 221 221 222 224 226 226 225 224 225 225 225 224 224 226 228 231 234
219 221 222 224 225 225 224 222 222 222 223 224 224 225 227 229 231 232 233 232 231 228 225 224 222 220 218 216 215 213 212 210 209 209 209 209 210 210 210 210 210 209 209 209 209 211 214 216 219 221 223 224 224 223 224 226 227 227 225 223 223 223 223 222 224 226 229 233 236
217 219 221 223 224 225 224 223 222 222 223 223 224 225 227 228 230 231 233 233 232 229 226 224 222 221 218 217 216 215 214 213 213 213 213 213 214 214 213 213 212 211 211 211 212 214 215 217 218 219 221 223 224 225 225 226 226 225 224 222 222 221 222 223 225 228 231 235 237
214 216 219 221 223 224 224 223 223 223 223 223 224 225 227 228 229 230 232 232 232 231 228 226 224 222 220 219 218 217 216 215 215 216 216 217 217 217 216 214 213 212 211 210 212 213 215 215 215 215 215 217 220 221 223 223 223 222 221 221 221 222 223 226 229 232 234 236 238
213 214 216 218 221 222 223 223 223 223 223 224 225 226 227 228 229 230 231 231 232 231 230 227 225 224 223 222 221 219 218 217 217 218 219 220 221 220 218 215 212 211 209 208 208 208 209 210 211 211 211 212 214 216 217 217 217 217 217 218 220 222 226 229 234 237 238 238 239
215 215 216 217 219 220 222 222 223 223 224 225 226 227 228 230 230 231 231 232 232 231 230 228 227 226 225 224 223 222 221 220 220 220 222 224 225 225 221 216 212 209 208 207 206 206 205 206 207 209 210 211 212 212 212 213 213 214 215 217 220 223 228 232 237 240 241 241 241
217 217 216 217 218 219 221 222 222 223 225 226 228 229 230 231 231 232 232 233 232 230 229 228 228 227 227 226 225 225 224 223 222 223 225 226 228 228 225 220 214 210 208 208 208 207 207 206 207 208 209 211 212 212 212 212 212 214 216 218 221 224 229 233 238 241 243 243 243
216 217 217 217 219 220 221 222 223 224 226 227 229 230 230 231 232 232 233 233 232 230 229 228 228 228 228 228 227 227 226 225 225 225 226 227 228 228 227 223 218 214 212 211 211 211 210 210 209 209 210 212 214 215 215 215 216 217 219 222 224 227 230 234 238 241 243 244 245
215 216 217 218 220 220 221 222 223 225 226 227 228 228 229 229 230 230 230 230 231 230 229 228 228 229 229 230 229 228 227 227 226 226 226 226 227 227 227 225 222 219 217 216 216 215 214 214 213 212 212 214 216 218 219 220 221 223 224 226 229 231 233 236 238 241 243 244 245
213 215 217 218 218 220 221 222 223 223 224 224 225 225 225 226 226 226 227 227 228 228 227 227 227 228 229 230 230 230 229 229 228 228 227 226 226 226 225 225 224 223 222 221 221 220 219 219 218 217 218 219 221 223 224 225 227 228 230 231 232 234 236 237 239 241 243 244 246
212 214 215 214 216 217 219 220 221 221 221 221 221 222 222 222 222 222 223 224 224 224 224 224 224 225 226 228 228 229 229 230 230 230 229 228 227 226 226 226 225 225 225 226 226 226 226 226 226 226 226 227 228 230 231 231 231 231 232 234 235 236 238 239 241 243 245 246 248
211 212 213 212 213 215 217 218 218 218 217 218 218 219 219 219 219 220 221 222 222 221 221 220 221 222 224 225 226 227 228 229 230 231 231 231 231 230 229 229 229 230 230 231 231 232 232 233 233 234 235 235 236 237 238 237 236 235 235 236 237 238 240 242 244 246 248 250 251
210 210 211 211 213 214 215 216 216 215 215 215 216 217 217 217 217 218 219 220 221 220 220 220 220 220 222 224 225 226 227 228 229 231 232 234 234 234 234 234 234 235 235 236 236 236 236 236 237 238 239 240 241 241 242 242 241 240 240 239 240 241 243 245 247 249 251 252 252
208 208 209 210 212 213 213 214 214 214 213 213 215 216 216 217 217 218 219 220 220 221 221 220 219 220 222 223 224 226 227 228 229 230 232 233 235 236 236 236 236 236 237 237 237 236 236 236 237 238 239 240 241 242 243 244 244 244 244 243 244 244 245 247 248 249 250 251 251
207 206 207 209 210 212 213 213 212 212 211 212 213 215 216 217 217 218 218 219 220 221 222 221 221 221 222 223 224 226 227 228 228 229 230 230 231 232 232 232 232 232 232 233 234 235 235 236 236 237 238 239 240 242 243 244 245 245 246 246 246 246 246 247 248 248 249 249 249
206 206 206 208 209 211 212 212 211 210 210 210 212 214 216 217 217 218 218 219 221 222 223 224 224 224 225 225 226 226 226 226 226 226 226 227 227 226 226 226 226 227 228 230 232 234 235 235 236 237 238 239 240 242 243 245 246 246 246 245 245 244 244 245 245 246 247 247 248
206 206 206 207 209 210 211 211 210 209 209 210 211 213 216 217 218 218 219 220 221 223 224 225 226 227 228 227 226 226 225 224 223 223 222 222 222 222 222 223 225 227 230 232 233 233 234 234 235 236 237 238 240 242 244 246 246 245 244 243 242 242 242 242 243 244 245 246 247
207 206 206 207 208 209 210 210 210 209 209 209 211 213 215 217 218 218 219 220 221 222 224 225 227 228 227 226 224 223 221 220 219 219 219 220 221 222 224 226 230 233 235 235 234 233 233 233 234 235 236 238 240 243 245 245 243 242 241 241 241 241 241 242 242 243 245 245 246
207 207 207 208 208 209 209 210 210 209 209 210 211 213 215 216 217 218 219 220 221 222 224 225 225 225 224 222 220 218 216 215 216 217 219 221 224 227 231 234 237 238 239 239 238 237 236 236 236 237 238 240 243 244 244 242 240 239 240 240 241 241 241 241 242 243 244 245 246
208 208 208 208 208 208 209 209 210 210 210 210 211 213 214 216 217 217 218 218 219 221 222 223 223 222 221 219 217 216 216 217 219 221 224 227 230 234 238 240 241 242 244 244 244 243 243 242 242 242 243 244 245 244 242 239 238 238 238 239 240 240 240 241 241 243 244 245 246
209 209 208 208 208 209 209 209 210 210 211 211 212 213 214 215 216 216 216 216 217 219 220 220 220 220 220 219 220 221 223 226 230 232 232 233 234 236 238 239 240 243 245 246 246 247 246 246 246 246 246 245 244 242 240 238 237 237 237 238 238 239 240 241 242 243 244 245 245
211 210 209 209 209 209 209 209 210 211 212 213 213 213 214 215 216 216 216 216 217 218 218 218 218 218 219 221 223 224 223 223 226 229 231 232 233 234 234 234 236 240 243 244 245 245 246 247 247 245 244 242 240 238 236 235 235 235 235 235 236 238 239 240 241 242 242 242 241
210 210 210 210 210 210 210 210 210 211 213 214 215 215 216 216 217 217 217 217 218 218 218 218 219 219 219 218 218 218 217 217 218 220 224 227 230 230 230 230 232 236 240 241 242 242 242 243 242 240 238 235 233 231 230 230 230 230 231 232 233 234 236 237 237 237 237 235 234
209 209 210 211 211 211 211 211 212 213 214 215 217 218 219 219 219 219 220 220 219 219 218 217 217 216 215 213 212 212 214 215 216 217 219 222 225 226 226 226 229 232 235 236 237 237 236 235 234 232 230 227 226 225 224 224 224 225 226 227 228 229 230 231 231 230 228 228 228
210 209 210 211 211 212 212 212 213 214 215 216 217 218 220 220 219 219 218 217 215 214 214 213 212 211 211 210 210 211 213 215 216 218 219 220 222 224 224 224 226 227 229 230 230 229 228 227 226 225 224 223 223 222 221 220 220 220 220 221 221 221 221 222 222 222 221 222 223
212 211 211 211 211 211 212 213 214 215 215 216 216 217 217 216 214 213 212 211 210 210 211 211 210 210 210 210 210 212 213 215 216 218 220 221 222 223 223 223 224 224 224 224 224 225 225 225 225 225 225 225 225 224 222 219 216 214 214 214 213 212 212 213 215 217 219 221 222
Height
1420 1421 1422 1423 1425 1426 1427 1428 1429 1430 1431 1433 1434 1435 1436 1437 1439 1440 1442 1443 1444 1445 1447 1448 1449 1451 1453 1455 1456 1457 1459 1461 1463 1465 1467 1469 1470 1472 1474 1476 1478 1480 1482 1484 1486 1487 1489 1490 1492 1493 1495 1496 1498 1500 1502 1503 1504 1505 1507 1508 1509 1510 1511 1511 1512 1513 1514 1515 1515
1418 1420 1421 1422 1424 1425 1426 1427 1429 1430 1431 1432 1433 1434 1435 1436 1438 1439 1440 1442 1443 1445 1446 1447 1448 1450 1452 1454 1455 1456 1458 1459 1461 1463 1465 1467 1469 1471 1473 1475 1477 1478 1480 1482 1484 1486 1488 1490 1491 1492 1494 1495 1497 1499 1500 1502 1503 1504 1505 1506 1507 1508 1509 1510 1511 1511 1512 1513 1514
1417 1419 1420 1422 1423 1424 1425 1426 1427 1429 1430 1431 1432 1433 1434 1435 1436 1438 1439 1440 1442 1444 1445 1446 1447 1449 1450 1453 1454 1455 1456 1457 1459 1461 1463 1465 1468 1470 1471 1473 1475 1476 1478 1480 1482 1484 1486 1488 1490 1491 1493 1494 1495 1497 1499 1500 1502 1503 1504 1505 1506 1507 1508 1508 1509 1510 1511 1512 1513
1416 1418 1419 1420 1421 1423 1424 1425 1426 1428 1429 1430 1431 1432 1434 1435 1436 1437 1438 1439 1441 1443 1444 1444 1445 1447 1450 1451 1452 1453 1454 1455 1457 1459 1461 1464 1466 1468 1469 1470 1472 1474 1476 1478 1481 1483 1485 1487 1489 1490 1491 1493 1494 1495 1497 1499 1500 1501 1502 1503 1505 1505 1506 1507 1508 1509 1510 1510 1511
1415 1416 1418 1419 1420 1422 1423 1424 1426 1427 1428 1430 1430 1431 1433 1434 1435 1436 1437 1438 1440 1441 1442 1443 1444 1446 1448 1449 1450 1451 1452 1453 1455 1457 1460 1462 1463 1465 1466 1468 1469 1471 1474 1477 1480 1482 1484 1486 1488 1489 1490 1491 1493 1494 1496 1498 1499 1500 1500 1502 1503 1504 1504 1505 1506 1507 1508 1509 1510
1414 1415 1417 1418 1420 1421 1422 1424 1425 1426 1428 1429 1430 1430 1431 1432 1433 1435 1436 1437 1438 1440 1441 1442 1443 1444 1445 1447 1448 1449 1450 1451 1453 1455 1457 1459 1461 1463 1464 1465 1467 1470 1473 1475 1478 1480 1483 1485 1486 1488 1489 1490 1491 1493 1495 1496 1497 1498 1499 1500 1501 1502 1503 1503 1504 1505 1506 1507 1508
1413 1414 1416 1417 1419 1420 1422 1423 1424 1425 1427 1428 1428 1429 1430 1431 1432 1433 1435 1436 1438 1439 1440 1441 1442 1443 1444 1445 1446 1447 1449 1450 1451 1453 1455 1457 1459 1461 1463 1465 1467 1470 1472 1474 1476 1479 1481 1484 1485 1486 1487 1489 1490 1491 1493 1495 1495 1496 1497 1498 1499 1500 1500 1501 1502 1503 1504 1505 1506
1412 1413 1415 1416 1418 1419 1420 1422 1423 1424 1425 1426 1427 1428 1429 1430 1431 1433 1434 1436 1437 1438 1439 1440 1440 1441 1442 1443 1444 1446 1447 1449 1450 1452 1454 1455 1458 1460 1462 1465 1467 1469 1471 1473 1475 1477 1480 1482 1483 1484 1485 1487 1488 1490 1491 1492 1493 1494 1495 1496 1497 1498 1499 1500 1500 1501 1502 1503 1504
1411 1412 1414 1415 1417 1418 1420 1420 1422 1423 1424 1425 1426 1427 1428 1429 1430 1432 1433 1435 1436 1437 1438 1439 1439 1440 1440 1442 1443 1444 1446 1447 1449 1451 1452 1454 1456 1459 1461 1463 1465 1468 1470 1472 1474 1476 1478 1480 1481 1482 1483 1485 1486 1487 1489 1490 1491 1492 1493 1494 1495 1496 1497 1497 1498 1499 1500 1501 1502
1410 1411 1413 1414 1415 1417 1418 1420 1420 1422 1423 1424 1425 1426 1427 1429 1430 1431 1432 1434 1435 1436 1437 1438 1439 1439 1440 1441 1442 1443 1445 1446 1448 1449 1451 1453 1455 1457 1460 1461 1464 1466 1468 1470 1473 1475 1477 1479 1480 1480 1481 1483 1484 1485 1486 1488 1489 1490 1491 1492 1493 1494 1495 1495 1496 1497 1498 1499 1500
1408 1410 1411 1413 1414 1416 1417 1419 1420 1421 1422 1423 1424 1425 1427 1428 1429 1430 1431 1433 1434 1435 1436 1437 1438 1438 1439 1440 1441 1442 1443 1445 1447 1448 1450 1452 1454 1456 1458 1460 1462 1464 1466 1468 1470 1473 1475 1476 1477 1479 1480 1480 1481 1483 1484 1485 1487 1488 1489 1490 1491 1492 1493 1493 1494 1495 1496 1497 1499
1407 1409 1410 1411 1413 1415 1416 1417 1419 1420 1421 1422 1423 1425 1426 1427 1428 1429 1430 1432 1433 1434 1435 1436 1437 1437 1438 1439 1440 1441 1442 1444 1445 1447 1449 1451 1452 1454 1456 1458 1460 1462 1464 1466 1468 1470 1472 1474 1475 1476 1477 1478 1479 1480 1482 1484 1485 1486 1487 1488 1489 1490 1490 1491 1492 1493 1494 1495 1497
1406 1408 1409 1411 1412 1414 1415 1416 1418 1419 1420 1421 1422 1424 1425 1426 1427 1428 1430 1430 1431 1432 1434 1435 1435 1436 1437 1438 1439 1440 1442 1443 1445 1446 1448 1450 1451 1453 1455 1457 1459 1460 1462 1463 1465 1467 1469 1471 1472 1473 1475 1476 1477 1478 1480 1481 1483 1484 1485 1486 1487 1488 1488 1489 1490 1492 1493 1494 1495
1405 1407 1408 1410 1411 1413 1414 1415 1417 1418 1419 1420 1421 1422 1424 1425 1426 1427 1428 1429 1430 1431 1432 1433 1434 1435 1436 1437 1439 1440 1441 1442 1444 1445 1447 1448 1450 1452 1454 1455 1457 1458 1460 1461 1463 1465 1467 1469 1470 1471 1472 1474 1475 1476 1478 1479 1480 1481 1483 1484 1485 1485 1486 1488 1489 1490 1492 1493 1494
1405 1406 1407 1409 1410 1412 1413 1415 1416 1417 1418 1419 1420 1421 1423 1424 1425 1426 1427 1428 1429 1430 1431 1432 1433 1434 1435 1437 1438 1439 1440 1442 1443 1445 1446 1447 1449 1451 1452 1454 1455 1457 1458 1459 1461 1463 1465 1466 1468 1469 1470 1472 1473 1475 1476 1477 1478 1479 1480 1482 1483 1484 1485 1486 1488 1489 1490 1491 1492
1404 1405 1406 1408 1409 1410 1412 1413 1415 1416 1417 1418 1419 1420 1421 1422 1424 1425 1425 1427 1428 1429 1430 1431 1432 1433 1434 1436 1437 1438 1440 1441 1442 1444 1445 1446 1448 1450 1451 1452 1454 1455 1456 1458 1459 1461 1463 1465 1466 1467 1468 1470 1471 1472 1473 1475 1476 1477 1478 1480 1481 1482 1484 1485 1486 1488 1489 1490 1490
1403 1404 1405 1406 1407 1409 1410 1412 1413 1415 1415 1417 1418 1419 1420 1421 1422 1423 1424 1425 1427 1428 1429 1430 1430 1432 1433 1435 1436 1437 1439 1440 1441 1443 1444 1445 1446 1448 1449 1451 1452 1454 1455 1457 1458 1460 1462 1464 1465 1466 1467 1468 1469 1470 1471 1473 1474 1475 1476 1478 1479 1481 1482 1483 1484 1486 1487 1487 1488
1401 1402 1404 1405 1406 1407 1409 1410 1412 1413 1415 1415 1417 1418 1419 1420 1421 1422 1423 1424 1425 1426 1427 1429 1430 1431 1432 1433 1435 1436 1437 1439 1440 1441 1442 1444 1445 1446 1448 1449 1451 1452 1454 1455 1457 1459 1461 1462 1464 1465 1466 1466 1467 1468 1469 1471 1472 1474 1475 1476 1477 1479 1480 1481 1483 1484 1485 1485 1486
1400 1401 1402 1403 1405 1406 1407 1409 1411 1412 1413 1415 1416 1417 1418 1419 1420 1421 1422 1423 1424 1425 1426 1428 1429 1430 1431 1432 1434 1435 1436 1437 1439 1440 1441 1443 1444 1445 1447 1448 1450 1451 1453 1454 1456 1458 1460 1461 1463 1464 1464 1465 1465 1466 1467 1469 1470 1472 1473 1474 1475 1476 1478 1479 1480 1482 1483 1484 1484
1398 1400 1401 1402 1403 1405 1406 1408 1410 1411 1412 1414 1415 1416 1417 1418 1419 1420 1421 1422 1423 1424 1425 1427 1428 1429 1430 1431 1433 1434 1435 1436 1438 1439 1440 1442 1443 1445 1446 1447 1448 1450 1451 1453 1454 1456 1458 1459 1460 1461 1462 1462 1463 1464 1465 1466 1468 1469 1470 1472 1473 1475 1476 1477 1479 1480 1481 1482 1483
1397 1398 1400 1401 1402 1404 1405 1407 1409 1410 1411 1412 1414 1415 1415 1416 1418 1419 1419 1420 1422 1423 1425 1425 1427 1428 1429 1430 1432 1433 1434 1435 1437 1438 1439 1440 1442 1443 1445 1446 1447 1448 1450 1451 1452 1453 1455 1456 1457 1458 1459 1460 1461 1462 1463 1464 1465 1467 1468 1470 1471 1473 1474 1476 1477 1478 1479 1480 1481
1396 1397 1399 1400 1402 1403 1405 1406 1408 1409 1410 1411 1412 1413 1415 1415 1416 1417 1418 1420 1421 1422 1423 1424 1425 1427 1428 1429 1430 1432 1433 1435 1436 1437 1438 1439 1440 1442 1444 1445 1446 1447 1448 1449 1450 1451 1452 1454 1455 1456 1457 1458 1459 1460 1461 1462 1464 1465 1466 1467 1469 1470 1472 1474 1475 1476 1477 1478 1479
1395 1397 1398 1400 1401 1402 1404 1405 1407 1408 1409 1410 1411 1412 1413 1414 1415 1416 1417 1419 1420 1421 1422 1423 1424 1425 1427 1428 1429 1431 1432 1433 1435 1436 1437 1438 1439 1440 1442 1443 1444 1445 1446 1447 1448 1449 1450 1452 1453 1454 1455 1456 1457 1459 1460 1461 1462 1463 1464 1465 1467 1468 1470 1471 1473 1474 1475 1476 1476
1394 1396 1397 1399 1400 1401 1403 1405 1406 1407 1408 1409 1410 1411 1412 1413 1415 1415 1416 1417 1418 1420 1421 1422 1423 1425 1426 1427 1428 1430 1431 1432 1433 1434 1435 1437 1438 1439 1440 1442 1443 1443 1444 1445 1446 1448 1449 1450 1451 1452 1453 1455 1456 1457 1458 1459 1460 1461 1462 1464 1465 1466 1468 1469 1470 1472 1473 1474 1474
1393 1395 1396 1398 1399 1400 1402 1403 1405 1406 1407 1408 1409 1410 1411 1412 1413 1415 1415 1416 1417 1419 1420 1421 1422 1424 1425 1426 1427 1428 1429 1430 1432 1433 1434 1435 1437 1438 1439 1440 1441 1442 1443 1444 1445 1446 1447 1448 1450 1451 1452 1453 1454 1455 1457 1458 1459 1460 1461 1462 1464 1465 1466 1467 1469 1470 1471 1471 1472
1392 1394 1395 1396 1398 1399 1400 1402 1403 1404 1405 1407 1408 1409 1410 1411 1412 1413 1414 1415 1416 1418 1419 1420 1421 1422 1424 1425 1426 1427 1428 1429 1430 1431 1433 1434 1435 1436 1437 1438 1439 1440 1441 1442 1444 1445 1446 1447 1449 1450 1451 1452 1453 1454 1455 1456 1458 1459 1460 1461 1462 1464 1465 1466 1467 1468 1469 1470 1470
1391 1392 1394 1395 1396 1398 1399 1400 1402 1403 1404 1405 1407 1408 1409 1410 1411 1413 1414 1415 1416 1417 1418 1419 1420 1421 1422 1424 1425 1425 1426 1427 1429 1430 1431 1432 1434 1435 1435 1436 1437 1438 1440 1441 1442 1444 1445 1446 1448 1449 1450 1451 1452 1453 1454 1455 1456 1458 1459 1460 1461 1462 1463 1464 1465 1465 1466 1467 1468
1390 1391 1392 1394 1395 1396 1397 1399 1400 1402 1403 1404 1405 1407 1408 1410 1410 1412 1413 1414 1415 1416 1417 1418 1420 1420 1422 1422 1423 1424 1425 1426 1427 1429 1430 1431 1432 1433 1434 1435 1436 1437 1438 1440 1441 1442 1444 1445 1446 1448 1449 1450 1451 1452 1453 1454 1455 1456 1457 1458 1459 1460 1461 1462 1462 1463 1464 1465 1466
1389 1390 1391 1393 1394 1395 1396 1397 1399 1400 1402 1403 1405 1406 1407 1409 1410 1411 1412 1413 1414 1415 1416 1417 1419 1420 1420 1421 1422 1423 1424 1425 1426 1427 1429 1430 1431 1432 1433 1434 1435 1436 1437 1438 1439 1440 1442 1443 1445 1446 1447 1448 1449 1450 1451 1453 1454 1455 1456 1457 1457 1458 1459 1460 1461 1461 1462 1463 1464
1388 1389 1390 1391 1392 1394 1395 1396 1398 1399 1401 1403 1404 1405 1406 1408 1409 1410 1411 1412 1413 1414 1415 1416 1417 1418 1419 1420 1421 1422 1423 1424 1425 1426 1428 1429 1430 1430 1431 1432 1433 1434 1435 1437 1438 1439 1440 1442 1443 1444 1445 1446 1448 1449 1450 1451 1452 1453 1454 1455 1456 1457 1458 1459 1459 1460 1460 1460 1461
1387 1388 1389 1390 1391 1393 1394 1395 1397 1399 1400 1402 1403 1404 1405 1407 1408 1409 1410 1411 1412 1413 1415 1415 1416 1417 1418 1419 1420 1421 1422 1423 1425 1425 1427 1427 1428 1429 1430 1431 1432 1433 1434 1436 1437 1438 1439 1440 1441 1443 1444 1445 1446 1448 1449 1450 1451 1452 1454 1454 1455 1455 1455 1456 1456 1456 1456 1457 1458
1386 1387 1388 1389 1390 1392 1393 1395 1396 1398 1400 1401 1402 1403 1405 1406 1407 1408 1410 1411 1412 1413 1414 1415 1415 1416 1417 1419 1420 1420 1421 1423 1424 1425 1426 1427 1428 1429 1430 1430 1431 1432 1434 1435 1435 1436 1437 1439 1440 1441 1442 1444 1445 1446 1448 1450 1451 1452 1452 1451 1451 1451 1452 1452 1452 1453 1454 1454 1454
1385 1386 1387 1388 1390 1391 1393 1394 1396 1397 1399 1400 1401 1402 1404 1405 1406 1408 1409 1410 1411 1412 1413 1414 1415 1415 1417 1418 1419 1420 1421 1422 1423 1424 1425 1426 1427 1428 1429 1430 1431 1432 1432 1433 1433 1435 1436 1437 1438 1440 1441 1443 1444 1446 1448 1450 1450 1450 1449 1448 1448 1449 1449 1450 1450 1450 1451 1451 1451
1383 1385 1386 1387 1389 1390 1392 1394 1395 1396 1398 1399 1400 1402 1403 1404 1406 1407 1408 1410 1410 1411 1412 1413 1414 1415 1416 1417 1418 1419 1420 1422 1423 1424 1425 1426 1427 1428 1428 1429 1430 1430 1430 1430 1432 1433 1434 1435 1437 1438 1440 1441 1443 1445 1446 1447 1447 1446 1446 1446 1446 1446 1447 1447 1447 1447 1448 1448 1448
1382 1384 1385 1386 1388 1390 1391 1393 1394 1396 1397 1399 1400 1401 1402 1404 1405 1406 1407 1409 1410 1411 1412 1413 1414 1415 1416 1417 1418 1419 1420 1422 1423 1424 1425 1426 1427 1427 1428 1428 1428 1428 1428 1429 1430 1431 1433 1434 1435 1437 1438 1440 1441 1442 1443 1443 1443 1443 1443 1443 1443 1444 1444 1444 1444 1444 1445 1445 1446
1381 1382 1384 1385 1387 1389 1390 1392 1393 1395 1396 1397 1399 1400 1401 1403 1404 1405 1407 1408 1409 1410 1411 1412 1413 1415 1415 1417 1418 1420 1421 1423 1424 1424 1424 1425 1425 1425 1426 1426 1426 1425 1426 1427 1428 1430 1431 1432 1433 1435 1436 1437 1438 1438 1438 1439 1439 1440 1440 1440 1440 1440 1440 1441 1441 1442 1442 1443 1444
1380 1381 1383 1385 1386 1388 1390 1391 1392 1394 1395 1396 1398 1399 1400 1402 1403 1405 1406 1407 1408 1409 1410 1411 1413 1414 1415 1417 1419 1420 1421 1422 1423 1422 1421 1421 1422 1423 1423 1424 1423 1423 1424 1425 1427 1429 1430 1430 1431 1432 1433 1434 1434 1434 1435 1435 1436 1436 1437 1437 1437 1438 1438 1439 1439 1440 1440 1441 1442
1380 1381 1383 1385 1386 1388 1389 1390 1391 1393 1394 1395 1397 1398 1400 1401 1403 1404 1405 1406 1407 1408 1409 1411 1412 1414 1416 1417 1418 1417 1417 1417 1417 1417 1418 1419 1420 1420 1421 1421 1421 1421 1422 1424 1426 1427 1429 1429 1430 1430 1430 1431 1431 1431 1432 1432 1432 1433 1433 1434 1434 1435 1435 1436 1437 1438 1438 1439 1440
1380 1381 1383 1385 1386 1387 1389 1390 1390 1391 1393 1394 1396 1398 1399 1400 1402 1403 1404 1405 1406 1408 1409 1410 1412 1414 1414 1414 1413 1413 1413 1414 1415 1415 1416 1417 1417 1418 1419 1419 1419 1420 1422 1423 1425 1426 1427 1428 1428 1428 1428 1429 1429 1429 1429 1429 1429 1430 1430 1430 1431 1431 1432 1433 1434 1435 1436 1437 1437
1379 1380 1382 1384 1385 1386 1388 1389 1390 1390 1392 1394 1395 1397 1399 1400 1401 1403 1404 1405 1406 1407 1408 1408 1409 1410 1410 1410 1410 1410 1410 1412 1413 1414 1414 1415 1415 1416 1417 1417 1418 1419 1420 1422 1424 1425 1425 1426 1426 1426 1426 1427 1427 1427 1427 1426 1426 1426 1427 1427 1428 1429 1430 1431 1432 1433 1434 1434 1435
1377 1379 1380 1382 1384 1385 1387 1388 1389 1390 1392 1394 1395 1397 1398 1400 1401 1402 1402 1402 1403 1403 1404 1405 1406 1407 1407 1408 1407 1408 1409 1410 1412 1412 1413 1414 1414 1415 1416 1416 1417 1418 1420 1421 1422 1423 1424 1424 1424 1424 1425 1425 1425 1425 1425 1425 1425 1424 1424 1425 1425 1426 1427 1429 1430 1431 1432 1433 1433